Overview Statistics Trail Chart Weather Telemetry Raw packets
 

This is the latest recevied weather packets stored in our database for station/object KB4MOX. If no packets are shown the sender has not sent any weather packets the latest 10 day(s).

<< 1 2 3 4 5 >>
Time Temp. Humidity Pressure Rain* Wind** Luminosity Snow
1788623847 32.78° C 64% 1014.7 hPa 0 mm - 705 W/m² -
1788623545 32.22° C 65% 1014.6 hPa 0 mm - 695 W/m² -
1788623239 32.22° C 67% 1014.8 hPa 0 mm - 682 W/m² -
1788622935 32.22° C 67% 1014.8 hPa 0 mm - 388 W/m² -
1788622630 31.67° C 68% 1014.7 hPa 0 mm - 104 W/m² -
1788622326 31.11° C 70% 1014.9 hPa 0 mm - 648 W/m² -
1788622021 31.11° C 72% 1015 hPa 0 mm - 192 W/m² -
1788621715 30° C 74% 1014.9 hPa 0 mm - 258 W/m² -
1788621410 30.56° C 75% 1015 hPa 0 mm - 48 W/m² -
1788621106 30° C 75% 1014.9 hPa 0 mm - 91 W/m² -
1788620801 30° C 77% 1015 hPa 0 mm - 50 W/m² -
1788620499 29.44° C 78% 1015 hPa 0 mm - 100 W/m² -
1788620198 29.44° C 79% 1015 hPa 0 mm - 529 W/m² -
1788619897 28.89° C 80% 1015.2 hPa 0 mm - 125 W/m² -
1788619592 28.89° C 80% 1015.1 hPa 0 mm - 128 W/m² -
1788619291 28.33° C 81% 1015 hPa 0 mm - 44 W/m² -
1788618995 28.33° C 82% 1015.2 hPa 0 mm - 39 W/m² -
1788618686 27.78° C 83% 1015.2 hPa 0 mm - 39 W/m² -
1788618385 27.22° C 86% 1015.3 hPa 0 mm - 39 W/m² -
1788618079 27.22° C 86% 1015.3 hPa 0 mm - 182 W/m² -
1788617779 26.67° C 88% 1015.4 hPa 0 mm - 51 W/m² -
1788617476 26.67° C 89% 1015.3 hPa 0 mm - 55 W/m² -
1788617176 26.67° C 90% 1015.3 hPa 0 mm - 42 W/m² -
1788616875 26.11° C 92% 1015.3 hPa 0 mm - 58 W/m² -
1788616570 26.11° C 94% 1015.5 hPa 0 mm - 90 W/m² -

* Rain latest hour (hover to see other rain measurements)
** Current wind speed in m/s (hover to see current wind gust speed)